Flag for Trinidad and Tobago Weather past 2 weeks in Port of Spain, Trinidad and Tobago

79 °F

Passing clouds.

Feels Like: 82 °F
Forecast: 81 / 88 °F
Wind: No wind

Location: Piarco International Airport - Trinidad

Current Time: Oct 9, 2015 at 10:18:32 PM

Latest Report: Oct 9, 2015 at 9:00 PM

Visibility: N/A

Pressure: 29.92 "Hg

Humidity: 89%

Dew point: 75 °F

Location of Port of SpainLocation

Historic Weather in Port of Spain — Graph


Port of Spain temperature yesterday

Maximum temperature yesterday: 91 °F (at 12:00 PM)
Minimum temperature yesterday: 75 °F (at 1:00 PM)
Average temperature yesterday: 80 °F

Past Weeks' High & Low Weather Summary

High95 °F (Sep 29, 1:00 PM)100% (Oct 1, 7:00 AM)29.98 "Hg (Oct 1, 7:00 AM)
Low73 °F (Sep 28, 6:00 AM)41% (Sep 29, 3:00 PM)29.74 "Hg (Sep 30, 5:00 PM)
Average83 °F78%29.87 "Hg
* Reported Sep 24 9:00 PM — Oct 9 9:00 PM, Port of Spain, Weather by CustomWeather, © 2015

Note: Actual official high and low records may vary slightly from our data, if they occured in-between our weather recording intervals... More about our weather records


Port of Spain weather history for previous 24 hours

Time TempWeatherWind HumidityBarometerVisibility
9:00 PM
Fri, Oct 9
79 °FPassing clouds.No wind89%29.92 "HgN/A
8:00 PM79 °FPassing clouds.No wind89%29.89 "HgN/A
7:00 PM79 °FPassing clouds.9 mph89%29.89 "HgN/A
6:00 PM77 °FScattered showers. Passing clouds.8 mph94%29.86 "HgN/A
5:00 PM79 °FScattered showers. Scattered clouds.17 mph89%29.83 "Hg4 mi
4:00 PM77 °FThunderstorms. Scattered clouds.7 mph83%29.86 "Hg6 mi
3:00 PM82 °FScattered showers. Scattered clouds.6 mph79%29.86 "Hg5 mi
2:00 PM88 °FScattered showers. Scattered clouds.14 mph66%29.86 "HgN/A
1:00 PM90 °FScattered clouds.16 mph63%29.86 "HgN/A
12:00 PM90 °FScattered clouds.15 mph67%29.89 "HgN/A
11:00 AM90 °FScattered clouds.12 mph67%29.95 "HgN/A
10:00 AM86 °FScattered clouds.9 mph79%29.95 "HgN/A
9:00 AM86 °FScattered showers. Scattered clouds.14 mph75%29.95 "HgN/A
8:00 AM84 °FScattered clouds.12 mph79%29.92 "HgN/A
7:00 AM81 °FScattered clouds.3 mph84%29.92 "HgN/A
6:00 AM79 °FScattered showers. Partly sunny.3 mph84%29.89 "HgN/A
5:00 AM77 °FPassing clouds.9 mph89%29.86 "HgN/A
4:00 AM77 °FPassing clouds.8 mph89%29.86 "HgN/A
3:00 AM77 °FLight rain. Passing clouds.8 mph89%29.86 "HgN/A
2:00 AM77 °FPassing clouds.13 mph94%29.89 "HgN/A
1:00 AM77 °FLight rain. Partly cloudy.16 mph94%29.89 "HgN/A
12:00 AM79 °FLight rain. Passing clouds.16 mph89%29.92 "HgN/A
11:00 PM
Thu, Oct 8
79 °FPassing clouds.13 mph89%29.92 "HgN/A
10:00 PM77 °FPassing clouds.9 mph94%29.95 "HgN/A
Weather by CustomWeather, © 2015

See weather overviewHow to use our weather pages